Regional Weather Roundup
Issued by NWS

Home | Current Version | Previous Version | Graphics & Text | Print | Product List | Glossary On
Versions: 1 2 3 4 5 6 7 8 9 10 11 12 13 14 15 16 17 18 19 20 21 22 23 24 25 26 27 28 29 30 31 32 33 34 35 36 37 38 39 40 41 42 43 44 45 46 47 48 49 50
000
ASUS43 KMKX 041421
RWRWI

WISCONSIN REGIONAL WEATHER ROUNDUP
NATIONAL WEATHER SERVICE MILWAUKEE/SULLIVAN WI
900 AM CDT TUE AUG 04 2015

NOTE: "FAIR" INDICATES FEW OR NO CLOUDS BELOW 12,000 FEET WITH NO
SIGNIFICANT WEATHER AND/OR OBSTRUCTIONS TO VISIBILITY.

WIZ001-002-006>008-014>016-023>028-041500-
NORTHWEST WISCONSIN

CITY           SKY/WX    TMP DP  RH WIND       PRES   REMARKS
SUPERIOR ARPT  SUNNY     63  56  77 SW7       29.97R
ASHLAND        SUNNY     65  55  70 VRB5      29.96R
HAYWARD        SUNNY     64  53  67 VRB3      29.99R
SIREN          SUNNY     63  54  72 W3        30.01R
CUMBERLAND     SUNNY     63  54  72 W5        30.01R
RICE LAKE      SUNNY     64  56  77 SW6       30.02R
CHETEK         SUNNY     65  56  72 W7        30.01R
LADYSMITH      SUNNY     65  55  70 W7        30.01R
EAU CLAIRE     SUNNY     65  55  70 VRB5      30.00R
MENOMONIE      SUNNY     67  55  65 W7        30.01S
NEW RICHMOND   SUNNY     66  56  68 NW8       30.02S
OSCEOLA        SUNNY     64  59  83 W5        30.04S
$$

WIZ003>005-009-010-017-018-041500-
NORTH CENTRAL WISCONSIN

CITY           SKY/WX    TMP DP  RH WIND       PRES   REMARKS
MANITOWISH WTR CLOUDY    61  56  83 NW6       29.95R
ARBOR VITAE    MOSUNNY   62  54  75 NW10      29.95R
WOODRUFF       MOSUNNY   62  54  75 NW10      29.95R
RHINELANDER    SUNNY     64  53  67 NW9G18    29.96R
EAGLE RIVER    CLOUDY    59  54  85 W8        29.94R
LAND O LAKES   CLOUDY    59  54  82 NW6G17    29.95R
PHILLIPS       SUNNY     62  55  75 W7        29.98R
TOMAHAWK       SUNNY     63  54  72 W10       29.97R
MEDFORD        SUNNY     64  53  69 NW9       29.99R
MERRILL        NOT AVBL
$$

WIZ029-030-035-036-043>047-041500-
CENTRAL WISCONSIN

CITY           SKY/WX    TMP DP  RH WIND       PRES   REMARKS
WAUSAU         SUNNY     66  52  60 NW8       29.96R
MOSINEE        SUNNY     64  54  68 NW7       29.99R
MARSHFIELD     SUNNY     67  52  58 W7        30.00R
STEVENS POINT  SUNNY     64  52  64 W7        29.99R
WAUPACA        SUNNY     70  54  57 W8        29.97R
WAUTOMA        SUNNY     69  53  56 NW9       29.99R
WISC RAPIDS    SUNNY     67  52  58 NW7       30.01R
CAMP DOUGLAS   MOSUNNY   68  59  73 VRB6      29.99S
$$

WIZ011>013-019>022-031-037>040-048>050-041500-
NORTHEAST WISCONSIN

CITY           SKY/WX    TMP DP  RH WIND       PRES   REMARKS
ANTIGO         SUNNY     63  54  72 W8        29.96R
SHAWANO        SUNNY     67  57  69 NW6       29.95R
OCONTO         PTSUNNY   65  58  77 W6        29.92R
STURGEON BAY   CLOUDY    63  54  72 W7        29.95R
GREEN BAY      MOSUNNY   67  58  72 W7        29.94R
MANITOWOC      MOSUNNY   69  56  62 MISG      29.94R
APPLETON       MOSUNNY   64  54  68 W8        29.96R
CLINTONVILLE   SUNNY     68  52  56 NW10      29.95R
OSHKOSH        SUNNY     66  56  70 W6        29.95R
$$

WIZ032>034-041-042-053>061-041500-
SOUTHWEST WISCONSIN

CITY           SKY/WX    TMP DP  RH WIND       PRES   REMARKS
LA CROSSE      SUNNY     67  57  70 S5        30.01R
SPARTA         SUNNY     65  54  67 SW3       30.02R
VIROQUA        SUNNY     66  56  69 W3        30.03R
BOSCOBEL       MOSUNNY   68  57  68 W3        30.01R
PRAIRIE DU CHI MOSUNNY   65  53  65 CALM      30.02R
PLATTEVILLE    MOSUNNY   66  59  77 W5        30.02R
$$

WIZ056-057-062-063-064-067-068-041500-
SOUTH CENTRAL WISCONSIN

CITY           SKY/WX    TMP DP  RH WIND       PRES   REMARKS
REEDSBURG      SUNNY     67  56  67 W7        29.99R
BARABOO/DELLS  SUNNY     67  53  59 NW5       29.99R
LONE ROCK      SUNNY     66  56  70 W5        30.01R
MINERAL POINT  SUNNY     68  55  64 N6        30.02R
MADISON        PTSUNNY   69  57  65 NW9       29.98R
MIDDLETON      SUNNY     69  55  61 NW7       30.00R
WATERTOWN      MOSUNNY   67  58  72 NW8       29.96S
MONROE         SUNNY     66  55  68 NW7       30.00R
JANESVILLE     SUNNY     70  55  60 NW6       29.97R
$$

WIZ051-052-058>065-066-070>072-041500-
SOUTHEAST WISCONSIN

CITY           SKY/WX    TMP DP  RH WIND       PRES   REMARKS
MILWAUKEE      MOSUNNY   74  52  46 W9        29.95R
WAUKESHA       SUNNY     68  54  60 W9        29.97R
MILWAUKEE/TIMM SUNNY     70  52  52 W7        29.95S
RACINE         SUNNY     72  55  55 W8        29.97R
BURLINGTON     SUNNY     70  53  55 W10       29.97R
KENOSHA        SUNNY     71  59  65 W8        29.97R
FOND DU LAC    SUNNY     68  57  68 NW10      29.96R
SHEBOYGAN      SUNNY     68  58  70 NW13      29.94R
WEST BEND      SUNNY     68  54  60 W6        29.95S
JUNEAU         MOSUNNY   66  57  72 NW8       29.98R
$$

LSZ147-162-041500-
LAKE SUPERIOR

STATION/POSITION TIME  TEMP    WIND        PRES    WAVE
                       AIR SEA DIR/SP/G            HT/PER
                 (UTC) (F)     (DEG/KT/KT) (MB)    (FT/S)
W MID LAKE BUOY  1350   56 56  320/  8/ 10 1013.3R   1
DEVILS ISLAND    1400   57     250/  5/  7 1014.2R
PORT WING        1340   60     250/  4/  7 1014.6R
SAXON HARBOR     1340   63     320/  6     1013.5R
$$

LMZ867-665-643>646-041500-
LAKE MICHIGAN

STATION/POSITION TIME  TEMP    WIND        PRES    WAVE
                       AIR SEA DIR/SP/G            HT/PER
                 (UTC) (F)     (DEG/KT/KT) (MB)    (FT/S)
CHAMBERS ISLAND  1300   62     300/  4/  8 1012.5R
S GREEN BAY BUOY 1400   64 71  320/  8/ 10 1014.8
N MID LAKE BUOY  1350   62 68  320/  8/  8 1012.2R   1/ 3
NORTHPORT PIER   1300   63     310/ 10/ 12 1012.2R
SISTER BAY       1303   63     340/ 13/ 14   N/A
ALGOMA LAKESHORE 1312          300/  9/ 11   N/A
KEWAUNEE LAKESHO 1400   66     320/  3/  6 1013.0R
SHEBOYGAN LAKESH 1400   67     270/ 10/ 11 1013.9R
PORT WASHINGTON  1300   70     270/  5/  8 1014.2R
ATWATER BUOY     1400   67 53  270/  4/  4 1015.3R
MILWAUKEE LAKESH 1400   72     260/  9/ 12   N/A
KENOSHA   LAKESH 1400   72     270/  8/ 13 1014.2S
$$

TC  - TEMPERATURE IN CELSIUS
VSB - VISIBILITY IN STATUTE MILES
WCI - WIND CHILL INDEX
HX  - HEAT INDEX




USA.gov is the U.S. government's official web portal to all federal, state and local government web resources and services.